User: anonymous   Login
Location: Unspecified
(0.0000°N, 0.0000°E)
Time: 00:16:23
(UTC+00:00)
Language:

FALCON 9 R/B - Orbit

View from above orbital plane
View from above orbital plane
View from above satellite
View from above satellite

Ground track
Ground track

The orbit data is extracted from the following two-line orbital elements,

1 39271U 13055G   17328.60836148 +.00005595 +00000-0 +14016-3 0  9992
2 39271 080.9666 187.1639 0624938 086.9474 280.2995 14.39406000215688
Epoch (UTC): 24 November 2017 14:36:02
Eccentricity: 0.0624938
inclination: 80.9666°
perigee height: 314 km
apogee height: 1206 km
right ascension of ascending node: 187.1639°
argument of perigee: 86.9474°
revolutions per day: 14.39406000
mean anomaly at epoch: 280.2995°
orbit number at epoch: 21568

The dashed part of the orbit path shows where the satellite is in the earth's shadow,  

DLR